Temperature
20 20 20 20 20 20 20 20 20 21 21 21 21 20 19 18 17 16 16 15 15 15 15 15 15 15 14 14 14 14 14 14 14 13 13 13 13 13 13 13 13 13 13 13
20 19 19 19 19 19 19 20 20 20 20 21 19 19 18 18 17 16 16 15 15 15 15 15 15 14 14 14 14 14 14 13 13 13 13 13 13 13 13 13 13 13 13 13
19 19 19 19 20 19 19 20 20 19 20 19 19 18 17 17 16 16 15 15 15 15 15 15 14 14 14 14 14 14 13 13 13 13 13 13 13 13 13 13 13 13 12 12
19 19 18 20 20 19 19 19 19 19 19 18 17 17 16 16 16 15 15 15 15 14 14 14 14 14 14 14 13 13 13 13 13 13 13 13 13 13 13 12 12 12 12 12
18 18 19 19 19 18 18 18 18 18 18 17 16 17 17 16 15 15 14 14 14 14 14 14 14 13 13 13 13 13 13 13 13 13 12 13 12 12 12 12 12 12 12 12
17 17 18 19 18 17 18 18 17 17 17 16 16 18 18 15 14 14 14 14 14 14 14 14 13 13 13 13 13 13 12 12 12 12 12 12 12 12 12 12 12 12 12 11
17 17 18 18 16 17 17 18 16 16 16 15 16 16 15 14 14 14 14 13 13 14 14 13 13 13 13 12 12 12 12 12 12 12 12 12 12 12 12 12 11 11 11 11
17 17 17 16 16 17 17 16 15 15 15 14 14 14 13 13 13 13 13 13 13 13 13 13 13 13 12 12 12 12 12 12 12 12 12 11 11 11 11 11 11 11 11 11
17 17 16 15 15 15 14 15 14 14 14 13 13 13 13 13 13 13 13 13 13 13 13 13 12 12 12 12 12 11 11 11 11 11 11 11 11 11 11 11 11 10 10 10
16 16 15 14 14 13 13 13 13 13 13 13 13 12 12 12 12 12 12 12 12 12 12 12 12 12 12 11 11 11 11 11 11 11 11 11 11 10 10 10 10 10 10 10
15 15 14 13 13 13 12 12 12 12 12 12 12 12 12 12 12 12 12 12 12 12 12 12 12 12 11 11 11 11 11 11 11 11 10 10 10 10 10 10 10 10 10 10
15 15 15 14 13 12 12 12 12 12 11 11 11 11 11 11 11 12 12 12 12 11 11 11 11 11 11 11 11 11 11 10 10 10 10 10 10 10 10 10 10 10 10 10
13 12 12 12 12 12 11 11 11 11 11 11 11 11 11 11 11 11 11 11 11 11 11 11 11 11 11 11 11 10 10 10 10 10 10 10 10 10 9 9 10 10 10 10
11 11 11 11 11 11 11 11 11 11 10 10 10 10 10 11 11 11 11 11 11 11 11 11 11 11 11 11 11 10 10 10 10 10 10 10 9 9 9 9 9 9 9 9
10 11 11 11 11 10 10 10 10 10 10 10 10 10 10 10 10 10 10 10 10 10 10 10 10 11 10 10 10 10 10 10 10 9 9 9 9 9 9 9 9 9 9 9
10 10 10 10 10 10 10 10 10 10 10 9 9 9 10 9 9 10 10 10 10 10 10 10 10 10 10 10 10 10 10 10 9 9 9 9 9 9 9 9 8 8 8 9
10 10 10 10 9 9 9 9 9 9 9 9 9 9 9 9 9 9 9 9 9 9 9 9 10 10 10 9 9 9 9 9 9 9 9 9 8 8 8 8 8 8 8 8
10 10 10 10 9 9 9 9 9 9 9 9 9 9 9 9 8 8 8 9 9 9 9 9 9 9 9 9 9 9 9 9 9 9 9 8 8 8 8 8 8 8 8 8
9 9 9 9 9 9 8 8 8 8 8 8 8 8 8 8 8 8 8 8 8 8 8 8 9 9 9 9 9 9 8 8 8 8 8 8 8 8 8 8 7 7 7 7
9 9 8 8 8 8 8 8 8 8 8 8 8 8 8 7 7 7 7 7 7 7 8 8 8 8 8 8 8 8 8 8 8 8 8 8 8 7 7 7 7 7 7 7
8 8 8 8 8 8 7 7 7 8 8 7 7 7 7 7 7 7 7 7 7 7 7 7 7 7 7 8 8 8 8 8 7 7 7 7 7 7 7 7 7 7 6 6
8 7 7 7 7 7 7 7 7 7 7 7 7 7 7 7 7 6 6 6 6 6 7 7 7 7 7 7 7 7 7 7 7 7 7 6 6 6 6 6 6 6 6 6
7 7 7 7 7 7 7 7 6 6 6 6 6 6 6 6 6 6 6 6 6 6 6 6 6 6 6 6 6 6 6 6 6 6 6 6 6 6 6 6 6 6 6 6
6 6 6 6 6 6 6 6 6 6 6 6 6 6 6 6 6 6 6 6 6 6 5 5 6 6 6 5 5 6 6 6 6 6 5 5 5 5 5 5 5 5 5 5
6 6 6 6 6 6 6 6 5 5 5 5 5 5 5 5 5 5 5 5 5 5 5 5 5 5 5 5 5 5 5 5 5 5 5 5 5 5 5 5 5 5 5 5
6 6 6 6 5 5 5 5 5 5 5 5 5 5 5 5 5 5 5 5 4 5 5 5 5 5 5 4 4 4 5 5 5 5 5 5 5 5 5 5 5 5 5 5
5 5 5 5 5 5 5 5 4 4 4 4 4 4 5 5 5 4 4 4 4 4 4 4 4 4 4 4 4 4 4 4 4 4 5 5 5 5 5 5 4 4 4 4
Wind_Speed
7 6 6 8 9 9 11 11 11 11 11 10 7 6 5 4 3 2 3 3 3 3 3 3 3 4 4 4 5 5 5 5 4 4 4 3 3 3 2 3 3 3 3 3
8 6 7 10 11 11 12 12 13 13 12 7 6 5 5 4 3 3 4 4 4 4 4 4 4 5 5 5 5 5 5 5 4 4 4 4 4 3 2 2 3 3 3 3
7 5 7 10 9 10 9 10 10 11 8 4 6 6 6 5 4 4 4 4 4 4 4 5 5 5 6 6 5 5 5 5 5 5 5 5 4 3 3 4 3 3 3 3
6 5 8 3 1 4 7 7 6 6 5 5 6 7 7 5 5 4 4 4 5 5 5 5 4 4 5 5 6 6 6 5 5 5 5 4 4 4 4 4 4 3 4 3
5 7 8 5 2 3 5 6 3 4 4 4 5 6 4 2 4 5 5 5 5 5 4 4 4 4 5 6 6 6 6 6 6 5 5 5 5 4 4 4 4 3 3 4
7 7 7 2 2 1 4 5 0 2 3 4 5 6 4 5 6 6 5 4 4 3 4 3 3 4 5 5 6 6 6 6 6 6 6 6 5 5 4 4 4 3 3 4
11 9 7 0 1 2 5 2 1 2 3 4 5 6 6 7 7 5 4 4 3 3 3 3 3 4 5 5 6 6 5 6 6 6 6 6 5 4 4 4 4 4 3 3
8 9 6 3 3 3 3 3 2 3 4 5 7 7 7 7 6 5 4 3 2 2 2 2 3 4 5 5 5 5 5 5 6 6 5 4 4 4 4 4 4 4 4 3
6 4 2 1 2 2 4 4 4 5 6 6 7 7 7 7 6 5 4 3 2 2 2 2 3 4 5 4 4 5 5 5 5 5 5 5 5 5 5 4 4 4 4 4
6 6 5 5 4 4 5 6 6 6 5 6 7 7 7 7 5 5 4 3 3 3 3 2 3 4 4 3 4 5 6 5 5 5 5 5 4 5 5 5 5 5 4 4
9 7 6 7 7 6 6 6 6 6 6 6 7 7 7 7 6 5 4 4 4 4 3 3 3 3 4 4 4 5 6 6 6 5 5 5 5 5 6 6 5 6 5 5
9 7 7 8 7 7 7 7 7 7 7 7 7 7 7 7 6 6 5 4 4 4 4 4 4 4 4 4 5 6 6 6 5 5 5 5 5 4 3 4 4 5 5 5
9 8 8 8 8 7 8 8 8 7 7 7 7 6 7 7 6 6 6 5 5 5 4 4 4 4 4 4 5 6 6 6 5 5 5 5 5 5 4 3 4 5 6 6
8 7 8 8 7 7 7 7 7 7 6 6 6 6 6 6 6 6 6 6 5 5 5 4 4 4 4 5 6 6 6 6 5 5 5 5 6 6 5 5 4 4 5 7
9 9 9 8 7 7 6 6 6 6 6 6 5 6 6 6 6 6 6 5 5 5 5 5 5 4 4 4 5 6 5 5 5 5 5 5 5 5 5 6 5 4 4 4
8 8 8 7 7 7 7 7 7 7 6 6 5 6 6 6 6 5 5 4 5 5 5 4 4 4 3 4 5 4 4 4 5 5 5 5 5 6 6 6 6 5 5 4
7 7 7 7 7 7 7 7 7 7 6 6 5 5 5 5 5 5 5 5 5 5 5 5 4 3 3 4 4 4 4 4 5 5 5 5 6 6 6 6 6 5 5 5
8 8 8 7 7 7 7 7 6 6 6 6 5 5 5 5 5 6 6 6 5 5 5 5 4 4 4 4 4 4 4 4 4 5 5 5 5 5 6 6 6 6 5 5
6 6 6 7 7 7 7 7 6 6 5 5 5 5 5 5 5 6 6 6 6 6 6 5 4 4 4 4 3 4 4 4 4 4 4 5 5 5 5 5 6 6 5 5
4 5 5 5 5 6 6 6 6 5 5 5 5 5 5 5 5 5 6 6 5 5 6 5 5 4 4 3 3 4 4 4 4 4 4 4 5 5 5 5 6 6 6 6
4 4 4 5 5 5 5 5 5 6 6 6 6 6 6 6 5 5 5 6 6 5 5 5 4 4 3 2 3 3 4 4 4 4 4 4 5 5 5 6 6 6 6 6
3 4 4 5 5 5 5 5 5 6 6 6 6 6 6 6 6 6 6 5 5 4 4 4 3 4 4 4 3 3 4 4 4 4 4 4 5 5 6 6 6 6 5 6
3 3 4 4 4 4 5 5 5 5 5 6 6 6 6 6 5 5 5 5 4 4 4 3 4 4 4 3 3 4 4 4 4 4 3 4 4 5 5 6 5 5 5 5
4 4 4 4 4 4 5 5 5 5 5 6 5 5 5 5 5 5 5 4 3 4 4 3 3 4 4 3 3 3 4 4 4 4 3 3 3 4 4 4 4 4 5 5
5 5 5 5 5 4 5 5 5 5 5 4 5 5 4 4 4 4 4 4 3 4 4 3 4 4 3 3 3 3 3 3 3 3 3 3 3 4 4 4 4 4 4 4
5 5 5 5 5 4 4 4 4 4 4 4 4 4 4 4 4 4 4 4 4 4 4 3 3 3 3 3 3 3 3 3 3 3 4 4 4 4 4 4 5 4 4 4
5 5 4 4 4 4 4 4 4 4 4 4 4 4 4 4 4 4 4 4 3 3 3 3 3 3 3 3 3 3 3 3 3 3 3 3 3 3 3 4 3 3 3 4
Wind_Direction
266 272 259 258 255 244 244 257 266 276 280 284 288 296 302 302 297 284 269 256 248 240 241 232 216 213 212 204 203 200 199 206 209 209 207 209 206 210 212 213 212 211 209 209
255 247 254 259 256 249 249 255 260 269 275 284 293 293 296 298 290 271 262 258 255 252 248 244 232 221 213 207 205 203 206 208 202 208 204 209 210 206 209 220 217 200 203 196
257 253 264 255 248 243 245 248 251 262 275 292 292 299 299 298 290 283 273 268 262 261 256 253 244 229 219 212 203 204 210 208 201 204 204 209 208 202 208 212 206 198 201 197
261 259 249 259 184 238 249 258 260 267 282 282 287 293 287 289 290 285 277 273 272 271 268 260 247 234 218 208 204 205 206 206 206 207 206 207 205 207 211 205 203 208 203 205
244 255 264 250 220 229 244 258 255 265 283 306 312 289 274 324 319 304 290 281 277 275 267 261 243 227 214 206 205 206 206 209 209 210 208 206 208 214 212 201 199 206 205 204
234 247 255 242 126 279 252 242 140 295 308 317 308 291 300 333 318 306 297 284 279 277 267 254 237 216 210 208 210 213 211 213 212 212 212 212 215 219 208 201 204 206 207 212
236 244 256 357 124 207 235 301 47 292 299 296 292 309 317 312 308 301 300 295 291 279 267 247 219 209 215 216 218 217 212 212 213 212 214 215 213 213 206 201 201 207 211 217
228 237 245 124 169 220 320 6 302 294 297 296 299 310 313 309 310 309 310 305 294 280 265 224 207 208 216 223 223 213 206 207 210 210 207 208 209 208 205 202 204 207 208 216
232 246 359 182 227 323 333 311 307 299 298 295 296 303 310 310 311 310 310 306 289 272 258 220 209 217 223 222 216 208 206 208 209 207 204 204 200 198 201 204 212 216 213 220
249 253 253 248 262 283 304 303 305 299 293 288 292 301 307 308 306 307 305 302 292 273 254 241 224 220 230 226 214 211 212 211 210 208 204 202 201 202 208 210 213 218 219 225
251 262 266 256 263 277 294 298 296 292 288 288 292 297 300 302 301 295 293 293 286 273 265 254 237 231 231 227 218 217 217 215 213 209 205 207 208 213 218 221 224 225 226 225
256 260 264 273 280 284 287 289 291 289 289 291 291 293 296 298 298 292 288 287 282 271 261 253 241 236 230 228 224 222 220 217 216 211 207 210 211 218 227 241 233 236 247 246
261 270 273 278 280 281 281 286 287 283 283 288 291 291 292 294 295 291 286 281 281 279 266 256 248 246 237 228 227 230 228 221 217 218 216 216 217 221 229 229 226 232 232 240
252 257 264 266 272 277 282 285 285 284 285 286 289 291 293 292 291 288 284 284 283 281 272 263 257 257 249 234 230 232 234 227 222 223 223 223 223 225 228 230 231 236 227 222
247 252 258 265 268 272 279 283 285 289 291 292 294 294 295 294 289 289 290 288 282 275 270 267 263 265 258 243 234 231 233 231 226 227 228 229 229 228 229 231 233 234 228 215
251 253 252 254 260 267 272 275 278 283 286 290 292 293 294 296 292 291 292 290 281 276 274 269 267 270 260 243 238 236 235 233 232 229 226 227 228 228 229 230 232 233 232 226
239 245 247 252 259 264 266 267 269 273 277 278 283 292 296 297 296 297 299 296 288 282 275 271 275 277 260 248 242 240 236 225 216 226 229 229 229 230 229 231 233 235 238 230
240 247 251 252 256 263 267 267 265 267 268 271 281 287 288 288 291 296 300 300 297 296 295 287 283 276 254 248 243 241 238 232 223 223 226 231 234 234 232 233 233 237 242 229
246 253 260 261 263 264 266 266 265 264 267 270 274 274 277 282 290 297 302 301 299 296 298 297 293 273 259 249 252 246 243 240 236 229 226 226 233 237 236 237 238 237 236 234
252 259 264 267 268 267 265 265 264 263 267 270 269 272 278 285 290 291 293 291 288 290 295 301 292 278 269 258 251 252 248 243 241 239 233 233 235 238 239 240 241 241 237 236
250 257 263 265 268 271 265 261 262 267 268 264 259 261 268 277 282 285 289 291 294 300 300 301 291 288 285 282 252 257 250 244 243 242 238 239 241 243 243 243 241 240 240 240
257 261 265 270 274 276 277 273 272 274 272 269 266 264 266 270 275 280 279 282 291 303 297 291 292 307 315 302 266 262 255 247 242 242 240 240 240 243 245 245 244 243 243 243
271 272 271 275 277 281 284 282 280 274 270 269 269 268 268 270 271 272 279 284 286 298 291 286 310 322 314 286 270 265 259 254 250 247 245 244 244 244 246 248 247 247 246 246
271 274 276 278 276 276 280 286 286 281 276 273 272 274 273 274 274 272 277 281 287 289 286 297 310 310 294 280 275 274 268 259 254 253 253 255 255 252 251 251 251 252 252 253
266 270 273 275 273 275 281 290 292 290 287 286 288 286 279 273 274 280 280 283 293 287 285 292 295 295 286 284 282 281 276 270 265 261 256 254 256 254 253 253 253 254 255 256
268 270 269 268 272 274 275 275 278 283 287 289 292 294 291 287 285 283 284 286 286 286 286 287 287 284 283 284 283 283 280 278 275 268 264 261 259 259 258 255 255 255 258 262
270 272 270 269 267 266 267 266 266 272 276 279 286 289 289 288 287 287 285 285 284 283 283 284 283 280 283 284 283 282 282 281 278 274 269 264 262 262 262 261 263 264 265 265
Height
1525 1525 1526 1527 1527 1527 1527 1524 1525 1520 1519 1518 1518 1520 1521 1521 1521 1521 1520 1520 1520 1520 1520 1520 1521 1521 1522 1523 1524 1525 1526 1527 1528 1529 1529 1530 1530 1531 1531 1532 1533 1533 1534 1535
1526 1525 1526 1526 1524 1523 1524 1523 1521 1520 1519 1517 1519 1519 1519 1519 1519 1518 1518 1518 1518 1518 1518 1517 1518 1518 1519 1520 1521 1522 1523 1524 1525 1526 1526 1527 1528 1528 1529 1529 1530 1531 1532 1533
1524 1524 1525 1523 1518 1519 1519 1518 1518 1518 1516 1517 1518 1518 1518 1518 1517 1516 1516 1516 1516 1515 1515 1515 1515 1515 1515 1517 1518 1519 1520 1521 1522 1523 1524 1524 1525 1526 1526 1527 1528 1528 1530 1530
1524 1526 1529 1516 1514 1516 1517 1516 1516 1517 1517 1518 1518 1517 1517 1516 1515 1514 1514 1513 1513 1512 1512 1512 1511 1512 1512 1513 1515 1516 1517 1518 1519 1520 1521 1522 1522 1523 1524 1524 1525 1526 1527 1528
1525 1525 1518 1514 1515 1516 1517 1516 1517 1517 1517 1517 1517 1514 1513 1513 1513 1513 1511 1510 1510 1509 1509 1508 1508 1508 1509 1510 1511 1513 1513 1514 1515 1517 1518 1519 1519 1520 1521 1522 1522 1523 1524 1525
1524 1527 1521 1512 1515 1516 1517 1515 1517 1517 1517 1517 1515 1511 1509 1511 1511 1509 1508 1507 1506 1506 1505 1505 1505 1505 1506 1507 1508 1509 1510 1511 1512 1514 1514 1515 1516 1517 1518 1519 1520 1521 1521 1522
1521 1521 1512 1512 1516 1517 1518 1514 1516 1517 1517 1516 1515 1513 1512 1510 1508 1507 1506 1504 1503 1502 1501 1501 1501 1502 1503 1504 1505 1506 1507 1508 1509 1510 1511 1512 1514 1514 1516 1516 1517 1518 1519 1519
1518 1519 1516 1514 1515 1515 1514 1515 1516 1516 1516 1515 1514 1512 1510 1508 1506 1505 1503 1502 1500 1500 1499 1498 1498 1499 1500 1501 1502 1503 1504 1505 1506 1507 1508 1509 1510 1511 1512 1513 1514 1515 1515 1516
1512 1513 1513 1514 1515 1516 1516 1515 1515 1515 1514 1513 1511 1509 1508 1506 1504 1503 1501 1500 1499 1498 1497 1496 1497 1497 1498 1498 1499 1500 1501 1501 1502 1503 1504 1505 1506 1507 1509 1510 1510 1511 1512 1513
1512 1511 1513 1514 1514 1514 1515 1514 1514 1513 1512 1510 1509 1507 1505 1504 1502 1501 1499 1498 1497 1496 1495 1495 1495 1495 1495 1496 1496 1497 1498 1499 1500 1500 1501 1502 1503 1504 1505 1506 1507 1508 1508 1509
1510 1510 1512 1511 1512 1512 1512 1511 1511 1510 1509 1508 1506 1504 1503 1501 1500 1499 1497 1496 1495 1494 1493 1493 1492 1492 1492 1493 1493 1494 1495 1496 1496 1497 1498 1499 1500 1501 1502 1503 1504 1504 1505 1505
1507 1508 1509 1509 1509 1509 1508 1508 1507 1506 1505 1504 1503 1501 1500 1498 1497 1496 1495 1494 1493 1492 1491 1491 1490 1490 1489 1490 1490 1491 1491 1492 1493 1494 1494 1495 1496 1497 1498 1499 1500 1500 1501 1502
1506 1506 1507 1506 1506 1506 1505 1504 1504 1503 1502 1500 1499 1498 1497 1495 1494 1493 1492 1491 1490 1489 1489 1488 1488 1487 1487 1487 1487 1487 1488 1488 1489 1490 1491 1491 1492 1493 1494 1494 1495 1496 1496 1497
1503 1504 1503 1503 1502 1502 1502 1501 1500 1499 1498 1497 1496 1494 1493 1492 1491 1490 1489 1488 1487 1486 1486 1485 1485 1484 1484 1483 1483 1483 1484 1485 1485 1486 1487 1488 1488 1489 1490 1490 1490 1490 1491 1492
1499 1499 1499 1499 1498 1498 1498 1497 1496 1495 1494 1493 1492 1491 1489 1488 1487 1486 1486 1485 1484 1483 1482 1481 1481 1481 1480 1480 1479 1480 1480 1480 1481 1481 1482 1483 1484 1485 1485 1486 1486 1486 1486 1487
1494 1494 1495 1495 1494 1494 1494 1493 1492 1491 1491 1490 1489 1487 1486 1485 1484 1483 1482 1481 1480 1479 1478 1478 1477 1477 1477 1476 1476 1476 1476 1476 1476 1477 1478 1479 1479 1480 1481 1481 1481 1481 1481 1482
1490 1489 1490 1490 1490 1490 1489 1489 1488 1488 1487 1486 1486 1484 1483 1482 1481 1479 1478 1477 1477 1476 1475 1474 1473 1473 1473 1473 1472 1472 1472 1472 1472 1473 1473 1474 1475 1475 1476 1476 1476 1476 1477 1477
1485 1486 1486 1486 1486 1486 1485 1485 1484 1484 1483 1482 1482 1481 1480 1479 1478 1476 1475 1474 1473 1472 1471 1471 1470 1469 1469 1469 1469 1469 1469 1468 1468 1468 1469 1469 1470 1470 1471 1471 1471 1471 1472 1472
1481 1482 1482 1482 1482 1482 1481 1480 1480 1479 1479 1479 1478 1477 1476 1475 1474 1473 1472 1470 1469 1468 1467 1467 1466 1465 1465 1465 1464 1464 1464 1464 1464 1464 1464 1465 1465 1465 1466 1466 1466 1466 1466 1466
1478 1478 1478 1478 1477 1477 1476 1476 1475 1475 1475 1475 1474 1473 1472 1471 1470 1469 1468 1466 1465 1464 1464 1463 1462 1461 1461 1460 1460 1460 1460 1459 1459 1459 1459 1460 1460 1460 1461 1461 1461 1461 1461 1461
1474 1475 1474 1474 1474 1473 1472 1471 1471 1471 1470 1470 1470 1469 1468 1467 1466 1465 1464 1462 1462 1461 1460 1459 1458 1457 1457 1456 1455 1455 1455 1455 1455 1455 1455 1455 1455 1455 1456 1455 1455 1455 1455 1455
1471 1471 1471 1471 1470 1469 1469 1468 1467 1466 1466 1466 1465 1465 1464 1463 1462 1461 1460 1459 1458 1457 1456 1455 1454 1454 1453 1452 1451 1451 1451 1451 1450 1450 1450 1450 1450 1450 1450 1450 1450 1450 1449 1449
1468 1468 1468 1467 1466 1466 1465 1464 1463 1463 1462 1461 1461 1460 1460 1459 1458 1457 1455 1455 1454 1453 1453 1451 1451 1450 1449 1448 1448 1447 1447 1446 1446 1446 1445 1445 1445 1445 1445 1445 1445 1444 1444 1443
1465 1465 1464 1464 1463 1462 1461 1461 1460 1459 1458 1457 1457 1456 1455 1454 1453 1452 1452 1451 1450 1449 1448 1447 1446 1446 1445 1444 1444 1443 1442 1442 1442 1441 1441 1440 1440 1440 1440 1440 1439 1439 1439 1438
1462 1462 1461 1460 1460 1459 1458 1457 1456 1455 1454 1453 1452 1452 1451 1450 1450 1449 1448 1447 1446 1446 1445 1444 1443 1442 1441 1441 1440 1439 1438 1438 1438 1437 1437 1436 1436 1436 1435 1435 1434 1434 1433 1433
1458 1458 1457 1456 1456 1455 1454 1453 1452 1451 1451 1450 1449 1448 1447 1447 1446 1445 1444 1443 1443 1442 1441 1440 1439 1438 1438 1437 1436 1436 1435 1434 1434 1433 1432 1432 1432 1431 1430 1430 1430 1429 1428 1428
1454 1454 1453 1452 1451 1451 1450 1450 1449 1448 1448 1447 1446 1445 1444 1443 1442 1441 1440 1440 1439 1438 1437 1437 1436 1435 1434 1433 1432 1432 1431 1430 1430 1429 1428 1428 1427 1427 1426 1426 1425 1424 1424 1423